Hourly Weather Roundup
Issued by NWS Central Illinois

Home | Current Version | Previous Version | Text Only | Print | Product List | Glossary On
Versions: 1 2 3 4 5 6 7 8 9 10 11 12 13 14 15 16 17 18 19 20 21 22 23 24 25 26 27 28 29 30 31 32 33 34 35 36 37 38 39 40 41 42 43 44 45 46 47 48 49 50
000
NZUS43 KILX 271810
HWRILX

AREA WEATHER ROUNDUP
NATIONAL WEATHER SERVICE, LINCOLN IL
100 PM CDT MON MAR 27 2017


CITY           SKY/WX    TMP DP  RH WIND       PRES   REMARKS
BLOOMINGTON    LGT RAIN  52  51  97 NE6       29.92F
6HR MIN TEMP:  47; 6HR MAX TEMP:  52; 6HR PCP:  0.05;

CHAMPAIGN      LGT RAIN  61  47  59 E9        29.89F
6HR MIN TEMP:  42; 6HR MAX TEMP:  64; 6HR PCP: TRACE;

DECATUR        LGT RAIN  59  51  75 SE8       29.89S
6HR MIN TEMP:  42; 6HR MAX TEMP:  59; 6HR PCP:  0.02;

EFFINGHAM      CLOUDY    55  55 100 E5        29.87F
6HR MIN TEMP:  47; 6HR MAX TEMP:  55; 6HR PCP:  0.08;

FLORA          CLOUDY    60  57  89 SE7       29.86F
6HR MIN TEMP:  49; 6HR MAX TEMP:  60; 6HR PCP:  0.07;

GALESBURG      LGT RAIN  51  49  91 E6        29.91F
6HR MIN TEMP:  45; 6HR MAX TEMP:  51;

JACKSONVILLE   LGT RAIN  52  51  97 NE10      29.88F
6HR MIN TEMP:  46; 6HR MAX TEMP:  52; 6HR PCP:  0.24;

LACON          DRIZZLE   51  48  92 CALM      29.92F
6HR MIN TEMP:  47; 6HR MAX TEMP:  51; 6HR PCP:  0.01;

LAWRENCEVILLE  CLOUDY    59  55  87 SE6       29.88R
6HR MIN TEMP:  45; 6HR MAX TEMP:  59; 6HR PCP:  0.01;

LITCHFIELD     CLOUDY    52  51  95 NE10      29.83F FOG
6HR MIN TEMP:  48; 6HR MAX TEMP:  53; 6HR PCP:  0.11;

$$


CITY           SKY/WX    TMP DP  RH WIND       PRES   REMARKS
LINCOLN        LGT RAIN  54  53  96 NE6       29.91F
6HR MIN TEMP:  46; 6HR MAX TEMP:  54;

MACOMB         LGT RAIN  50  50  99 E6        29.93F
6HR MIN TEMP:  46; 6HR MAX TEMP:  50; 6HR PCP:  0.11;

MATTOON        LGT RAIN  55  53  93 E8        29.86F
6HR MIN TEMP:  46; 6HR MAX TEMP:  57; 6HR PCP:  0.01;

MT CARMEL AP   CLOUDY    61  55  81 SE7       29.87S
6HR MIN TEMP:  45; 6HR MAX TEMP:  61;

OLNEY-NOBLE AP CLOUDY    59  59 100 SE5       29.87F
PARIS          RAIN      57  53  85 SE9       29.91F
6HR MIN TEMP:  45; 6HR MAX TEMP:  60; 6HR PCP:  0.01;

PEORIA         LGT RAIN  51  50  96 NE3       29.91F FOG
6HR MIN TEMP:  48; 6HR MAX TEMP:  51; 6HR PCP:  0.14;

PONTIAC        LGT RAIN  53  52  97 SE5       29.93F
6HR MIN TEMP:  48; 6HR MAX TEMP:  54;

RANTOUL        CLOUDY    58  53  82 E6        29.89F
6HR MIN TEMP:  46; 6HR MAX TEMP:  59;

SPRINGFIELD    LGT RAIN  53  51  93 NE10      29.88F FOG
6HR MIN TEMP:  48; 6HR MAX TEMP:  53; 6HR PCP:  0.16;

TAYLORVILLE    DRIZZLE   54  54 100 N12       29.86F
$$

...REGIONAL REPORTS...


CITY           SKY/WX    TMP DP  RH WIND       PRES   REMARKS
CHICAGO O`HARE CLOUDY    48  44  86 E7        29.93F FOG
KANKAKEE       LGT RAIN  56  49  78 CALM      29.93F
MOLINE         CLOUDY    52  45  77 E6        29.92S
MOUNT STERLING DRIZZLE   49  48  95 NE8       29.89F
MOUNT VERNON   CLOUDY    67  57  70 SW16      29.83F
PITTSFIELD     LGT RAIN  52  51  97 NE13      29.88F
QUINCY         CLOUDY    51  49  92 NE14      29.88F
ROCKFORD       CLOUDY    50  44  80 S5        29.95F
$$


CITY           SKY/WX    TMP DP  RH WIND       PRES   REMARKS
BURLINGTON     CLOUDY    51  49  92 E6        29.91F
CEDAR RAPIDS   CLOUDY    48  45  89 NW3       29.93S
DES MOINES     CLOUDY    48  42  80 N6        29.96F
KIRKSVILLE     CLOUDY    51  50  97 E9        29.90F
OTTUMWA        CLOUDY    50  46  86 N3        29.93R
ST LOUIS       LGT RAIN  56  53  90 E5        29.84F FOG
$$


CITY           SKY/WX    TMP DP  RH WIND       PRES   REMARKS
TERRE HAUTE    LGT RAIN  58  51  78 E5        29.90F
EVANSVILLE     CLOUDY    66  57  72 S8        29.88F
INDIANAPOLIS   CLOUDY    61  50  67 SE10      29.89F
LAFAYETTE      PTSUNNY   58  52  80 E7        29.91F
MADISON        CLOUDY    46  41  82 CALM      29.94R
MILWAUKEE      CLOUDY    45  39  79 E6        29.95S
$$






USA.gov is the U.S. government's official web portal to all federal, state and local government web resources and services.